This demonstration page uses our WeatherBlox Daily Observations layout. Learn more.

Left ArrowRight Arrow

36.17497, -115.13722

Hourly Observations for August 18, 2017

Temp ( °F °C ) Dew Point ( °F °C ) Humidity (%) Winds ( mph kmh ) Pressure ( in mb ) Visibility ( mi km ) Precip ( " mm )
12:53 am 00:53 Clear 84 28.9 43 6.1 24 24 NW 6 9 29.91 1013 10 16.0934 N/A
1:53 am 01:53 Clear 82 27.8 42 5.6 24 24 NNW 3 6 29.9 1013 10 16.0934 N/A
2:53 am 02:53 Clear 80 26.7 46 7.8 30 30 NNW 3 6 29.9 1013 10 16.0934 N/A
3:53 am 03:53 Clear 79 26.1 46 7.8 31 31 NNW 3 6 29.9 1013 10 16.0934 N/A
4:53 am 04:53 Clear 79 26.1 41 5 26 26 NNW 6 9 29.92 1013 10 16.0934 N/A
5:53 am 05:53 Clear 78 25.6 41 5 27 27 NW 6 9 29.93 1014 10 16.0934 N/A
6:53 am 06:53 Sunny 80 26.7 42 5.6 26 26 NW 3 6 29.95 1014 10 16.0934 N/A
7:53 am 07:53 Sunny 84 28.9 42 5.6 23 23 N N/A 29.96 1015 10 16.0934 N/A
8:53 am 08:53 Sunny 89 31.7 39 3.9 17 17 VRB 3 6 29.96 1015 10 16.0934 N/A
9:53 am 09:53 Sunny 91 32.8 38 3.3 15 15 VRB 3 6 29.97 1015 10 16.0934 N/A
10:53 am 10:53 Sunny 93 33.9 38 3.3 14 14 E 5 7 29.97 1015 10 16.0934 N/A
11:53 am 11:53 Sunny 97 36.1 38 3.3 13 13 SSE 8 13 29.95 1014 10 16.0934 N/A
12:53 pm 12:53 Sunny 99 37.2 33 0.6 10 10 VRB 6 9 29.93 1013 10 16.0934 N/A
1:53 pm 13:53 Sunny 100 37.8 35 1.7 10 10 VRB 5 7 29.92 1013 10 16.0934 N/A
2:53 pm 14:53 Sunny 101 38.3 34 1.1 10 10 SSW 5 7 29.89 1012 10 16.0934 N/A
3:53 pm 15:53 Sunny 102 38.9 33 0.6 9 9 S 8 13 29.87 1011 10 16.0934 N/A
4:53 pm 16:53 Sunny 101 38.3 32 undefined 9 9 N N/A 29.85 1011 10 16.0934 N/A
5:53 pm 17:53 Sunny 102 38.9 31 -0.6 8 8 NE 3 6 29.83 1010 10 16.0934 N/A
6:53 pm 18:53 Sunny 100 37.8 31 -0.6 9 9 S 5 7 29.82 1010 10 16.0934 N/A
7:53 pm 19:53 Clear 98 36.7 33 0.6 10 10 SSE 5 7 29.82 1010 10 16.0934 N/A
8:53 pm 20:53 Clear 96 35.6 34 1.1 11 11 SSW 8 13 29.84 1010 10 16.0934 N/A
9:53 pm 21:53 Clear 94 34.4 32 undefined 11 11 WSW 3 6 29.85 1011 10 16.0934 N/A
10:53 pm 22:53 Clear 91 32.8 32 undefined 12 12 W 6 9 29.85 1011 10 16.0934 N/A
11:53 pm 23:53 Clear 87 30.6 33 0.6 14 14 N 3 6 29.85 1011 10 16.0934 N/A

Powered by AerisWeather